Time,TemperatureF,DewpointF,PressureIn,WindDirection,WindDirectionDegrees,WindSpeedMPH,WindSpeedGustMPH,Humidity,HourlyPrecipIn,Conditions,Clouds,dailyrainin,SoftwareType,DateUTC
2013-05-13 00:01:00,51.5,34.9,29.77,NW,319,4.0,7.0,53,0.00,,,0.00,Wunderground v.1.15,2013-05-13 04:01:00,
2013-05-13 00:02:00,51.5,34.9,29.77,WNW,297,6.0,7.0,53,0.00,,,0.00,Wunderground v.1.15,2013-05-13 04:02:00,
2013-05-13 00:03:00,51.5,34.4,29.77,NW,314,4.0,7.0,52,0.00,,,0.00,Wunderground v.1.15,2013-05-13 04:03:00,
2013-05-13 00:08:00,51.5,34.9,29.78,WNW,284,4.0,9.0,53,0.00,,,0.00,Wunderground v.1.15,2013-05-13 04:08:00,
2013-05-13 00:13:00,51.4,34.8,29.78,West,265,4.0,5.0,53,0.00,,,0.00,Wunderground v.1.15,2013-05-13 04:13:00,
2013-05-13 00:14:00,51.4,34.8,29.78,West,273,4.0,5.0,53,0.00,,,0.00,Wunderground v.1.15,2013-05-13 04:14:00,
2013-05-13 00:20:00,51.3,34.7,29.78,West,280,8.0,8.0,53,0.00,,,0.00,Wunderground v.1.15,2013-05-13 04:20:00,
2013-05-13 00:26:00,51.3,34.7,29.78,WNW,288,6.0,8.0,53,0.00,,,0.00,Wunderground v.1.15,2013-05-13 04:26:00,
2013-05-13 00:31:00,51.1,34.1,29.79,NW,311,7.0,7.0,52,0.00,,,0.00,Wunderground v.1.15,2013-05-13 04:31:00,
2013-05-13 00:36:00,51.0,34.5,29.79,WNW,302,1.0,7.0,53,0.00,,,0.00,Wunderground v.1.15,2013-05-13 04:36:00,
2013-05-13 00:41:00,50.9,34.4,29.79,WNW,302,2.0,4.0,53,0.00,,,0.00,Wunderground v.1.15,2013-05-13 04:41:00,
2013-05-13 00:46:00,50.9,34.8,29.79,West,275,1.0,4.0,54,0.00,,,0.00,Wunderground v.1.15,2013-05-13 04:46:00,
2013-05-13 00:52:00,50.8,34.7,29.79,WSW,237,1.0,2.0,54,0.00,,,0.00,Wunderground v.1.15,2013-05-13 04:52:00,
2013-05-13 00:57:00,50.7,34.6,29.80,West,266,0.0,3.0,54,0.00,,,0.00,Wunderground v.1.15,2013-05-13 04:57:00,
2013-05-13 01:02:00,50.6,35.0,29.80,West,280,5.0,5.0,55,0.00,,,0.00,Wunderground v.1.15,2013-05-13 05:02:00,
2013-05-13 01:07:00,50.5,34.5,29.80,West,261,2.0,6.0,54,0.00,,,0.00,Wunderground v.1.15,2013-05-13 05:07:00,
2013-05-13 01:13:00,50.4,34.8,29.80,WSW,256,1.0,3.0,55,0.00,,,0.00,Wunderground v.1.15,2013-05-13 05:13:00,
2013-05-13 01:18:00,50.3,34.7,29.80,West,281,2.0,4.0,55,0.00,,,0.00,Wunderground v.1.15,2013-05-13 05:18:00,
2013-05-13 01:23:00,50.2,34.6,29.80,WSW,253,0.0,2.0,55,0.00,,,0.00,Wunderground v.1.15,2013-05-13 05:23:00,
2013-05-13 01:28:00,50.2,35.5,29.80,WSW,251,1.0,2.0,57,0.00,,,0.00,Wunderground v.1.15,2013-05-13 05:28:00,
2013-05-13 01:33:00,50.1,35.9,29.81,WSW,249,1.0,1.0,58,0.00,,,0.00,Wunderground v.1.15,2013-05-13 05:33:00,
2013-05-13 01:38:00,50.1,35.9,29.81,WSW,249,0.0,3.0,58,0.00,,,0.00,Wunderground v.1.15,2013-05-13 05:38:00,
2013-05-13 01:43:00,50.1,36.3,29.80,WSW,246,2.0,4.0,59,0.00,,,0.00,Wunderground v.1.15,2013-05-13 05:43:00,
2013-05-13 01:49:00,50.0,36.2,29.81,WSW,247,2.0,4.0,59,0.00,,,0.00,Wunderground v.1.15,2013-05-13 05:49:00,
2013-05-13 01:54:00,49.9,36.1,29.81,WSW,246,1.0,1.0,59,0.00,,,0.00,Wunderground v.1.15,2013-05-13 05:54:00,
2013-05-13 01:59:00,49.8,36.0,29.81,WSW,250,0.0,2.0,59,0.00,,,0.00,Wunderground v.1.15,2013-05-13 05:59:00,
2013-05-13 02:04:00,49.6,36.3,29.81,WSW,250,0.0,2.0,60,0.00,,,0.00,Wunderground v.1.15,2013-05-13 06:04:00,
2013-05-13 02:09:00,49.5,36.2,29.81,WSW,250,0.0,2.0,60,0.00,,,0.00,Wunderground v.1.15,2013-05-13 06:09:00,
2013-05-13 02:14:00,49.4,35.7,29.81,WSW,249,0.0,2.0,59,0.00,,,0.00,Wunderground v.1.15,2013-05-13 06:14:00,
2013-05-13 02:19:00,49.2,35.5,29.81,WSW,250,0.0,2.0,59,0.00,,,0.00,Wunderground v.1.15,2013-05-13 06:19:00,
2013-05-13 02:24:00,49.0,35.7,29.81,WSW,250,0.0,0.0,60,0.00,,,0.00,Wunderground v.1.15,2013-05-13 06:24:00,
2013-05-13 02:29:00,48.8,35.5,29.81,WSW,248,0.0,3.0,60,0.00,,,0.00,Wunderground v.1.15,2013-05-13 06:29:00,
2013-05-13 02:34:00,48.5,35.2,29.82,WSW,248,0.0,2.0,60,0.00,,,0.00,Wunderground v.1.15,2013-05-13 06:34:00,
2013-05-13 02:39:00,48.3,35.5,29.82,WSW,248,1.0,3.0,61,0.00,,,0.00,Wunderground v.1.15,2013-05-13 06:39:00,
2013-05-13 02:44:00,48.1,35.3,29.82,WSW,248,2.0,3.0,61,0.00,,,0.00,Wunderground v.1.15,2013-05-13 06:44:00,
2013-05-13 02:49:00,47.9,35.1,29.82,West,276,0.0,4.0,61,0.00,,,0.00,Wunderground v.1.15,2013-05-13 06:49:00,
2013-05-13 02:54:00,47.9,35.5,29.82,West,276,0.0,4.0,62,0.00,,,0.00,Wunderground v.1.15,2013-05-13 06:54:00,
2013-05-13 02:59:00,47.8,35.4,29.82,West,276,0.0,4.0,62,0.00,,,0.00,Wunderground v.1.15,2013-05-13 06:59:00,
2013-05-13 03:04:00,47.6,35.2,29.83,West,261,3.0,5.0,62,0.00,,,0.00,Wunderground v.1.15,2013-05-13 07:04:00,
2013-05-13 03:09:00,47.5,35.1,29.83,WNW,283,0.0,5.0,62,0.00,,,0.00,Wunderground v.1.15,2013-05-13 07:09:00,
2013-05-13 03:15:00,47.4,35.4,29.83,West,271,0.0,4.0,63,0.00,,,0.00,Wunderground v.1.15,2013-05-13 07:15:00,
2013-05-13 03:20:00,47.3,35.3,29.83,West,271,0.0,1.0,63,0.00,,,0.00,Wunderground v.1.15,2013-05-13 07:20:00,
2013-05-13 03:25:00,47.3,35.3,29.83,WSW,257,1.0,3.0,63,0.00,,,0.00,Wunderground v.1.15,2013-05-13 07:25:00,
2013-05-13 03:30:00,47.3,35.3,29.83,WSW,257,0.0,1.0,63,0.00,,,0.00,Wunderground v.1.15,2013-05-13 07:30:00,
2013-05-13 03:35:00,47.2,35.2,29.83,WSW,257,0.0,4.0,63,0.00,,,0.00,Wunderground v.1.15,2013-05-13 07:35:00,
2013-05-13 03:40:00,47.0,35.0,29.83,WSW,257,0.0,1.0,63,0.00,,,0.00,Wunderground v.1.15,2013-05-13 07:40:00,
2013-05-13 03:45:00,47.0,35.4,29.83,WSW,257,0.0,1.0,64,0.00,,,0.00,Wunderground v.1.15,2013-05-13 07:45:00,
2013-05-13 03:50:00,46.9,35.4,29.83,WSW,257,0.0,0.0,64,0.00,,,0.00,Wunderground v.1.15,2013-05-13 07:50:00,
2013-05-13 03:55:00,46.9,35.4,29.83,WSW,257,0.0,2.0,64,0.00,,,0.00,Wunderground v.1.15,2013-05-13 07:55:00,
2013-05-13 04:00:00,46.7,35.2,29.83,WNW,294,2.0,2.0,64,0.00,,,0.00,Wunderground v.1.15,2013-05-13 08:00:00,
2013-05-13 04:05:00,46.5,34.6,29.83,West,268,3.0,7.0,63,0.00,,,0.00,Wunderground v.1.15,2013-05-13 08:05:00,
2013-05-13 04:10:00,46.3,34.4,29.83,WSW,254,3.0,3.0,63,0.00,,,0.00,Wunderground v.1.15,2013-05-13 08:10:00,
2013-05-13 04:15:00,46.1,33.8,29.84,West,267,3.0,6.0,62,0.00,,,0.00,Wunderground v.1.15,2013-05-13 08:15:00,
2013-05-13 04:20:00,46.0,34.1,29.84,WNW,296,2.0,4.0,63,0.00,,,0.00,Wunderground v.1.15,2013-05-13 08:20:00,
2013-05-13 04:25:00,45.9,33.2,29.84,WSW,243,4.0,12.0,61,0.00,,,0.00,Wunderground v.1.15,2013-05-13 08:25:00,
2013-05-13 04:30:00,45.9,33.2,29.85,WNW,299,2.0,5.0,61,0.00,,,0.00,Wunderground v.1.15,2013-05-13 08:30:00,
2013-05-13 04:35:00,45.8,33.5,29.85,WNW,283,2.0,10.0,62,0.00,,,0.00,Wunderground v.1.15,2013-05-13 08:35:00,
2013-05-13 04:40:00,45.9,32.8,29.85,WSW,238,5.0,7.0,60,0.00,,,0.00,Wunderground v.1.15,2013-05-13 08:40:00,
2013-05-13 04:45:00,45.9,33.2,29.85,WNW,284,5.0,9.0,61,0.00,,,0.00,Wunderground v.1.15,2013-05-13 08:45:00,
2013-05-13 04:50:00,45.8,32.7,29.85,West,272,4.0,10.0,60,0.00,,,0.00,Wunderground v.1.15,2013-05-13 08:50:00,
2013-05-13 04:55:00,45.8,32.7,29.85,WNW,283,7.0,10.0,60,0.00,,,0.00,Wunderground v.1.15,2013-05-13 08:55:00,
2013-05-13 05:00:00,45.7,33.0,29.85,West,271,1.0,7.0,61,0.00,,,0.00,Wunderground v.1.15,2013-05-13 09:00:00,
2013-05-13 05:05:00,45.7,32.6,29.85,West,279,1.0,7.0,60,0.00,,,0.00,Wunderground v.1.15,2013-05-13 09:05:00,
2013-05-13 05:10:00,45.7,33.0,29.86,West,260,0.0,1.0,61,0.00,,,0.00,Wunderground v.1.15,2013-05-13 09:10:00,
2013-05-13 05:15:00,45.8,33.1,29.86,West,269,2.0,5.0,61,0.00,,,0.00,Wunderground v.1.15,2013-05-13 09:15:00,
2013-05-13 05:20:00,45.7,33.0,29.86,WNW,291,2.0,4.0,61,0.00,,,0.00,Wunderground v.1.15,2013-05-13 09:20:00,
2013-05-13 05:25:00,45.6,32.9,29.86,WNW,288,2.0,5.0,61,0.00,,,0.00,Wunderground v.1.15,2013-05-13 09:25:00,
2013-05-13 05:30:00,45.7,33.4,29.87,West,260,2.0,3.0,62,0.00,,,0.00,Wunderground v.1.15,2013-05-13 09:30:00,
2013-05-13 05:35:00,45.7,33.0,29.87,West,261,0.0,3.0,61,0.00,,,0.00,Wunderground v.1.15,2013-05-13 09:35:00,
2013-05-13 05:40:00,45.7,33.4,29.87,SW,230,1.0,1.0,62,0.00,,,0.00,Wunderground v.1.15,2013-05-13 09:40:00,
2013-05-13 05:45:00,45.6,33.3,29.87,WSW,246,1.0,5.0,62,0.00,,,0.00,Wunderground v.1.15,2013-05-13 09:45:00,
2013-05-13 05:50:00,45.6,33.3,29.88,West,273,0.0,3.0,62,0.00,,,0.00,Wunderground v.1.15,2013-05-13 09:50:00,
2013-05-13 05:55:00,45.5,33.2,29.88,West,264,0.0,3.0,62,0.00,,,0.00,Wunderground v.1.15,2013-05-13 09:55:00,
2013-05-13 06:00:00,45.5,33.2,29.88,WSW,242,3.0,3.0,62,0.00,,,0.00,Wunderground v.1.15,2013-05-13 10:00:00,
2013-05-13 06:05:00,45.5,33.2,29.87,WSW,252,2.0,3.0,62,0.00,,,0.00,Wunderground v.1.15,2013-05-13 10:05:00,
2013-05-13 06:10:00,45.6,33.3,29.88,West,263,1.0,1.0,62,0.00,,,0.00,Wunderground v.1.15,2013-05-13 10:10:00,
2013-05-13 06:15:00,45.8,33.1,29.88,West,271,0.0,4.0,61,0.00,,,0.00,Wunderground v.1.15,2013-05-13 10:15:00,
2013-05-13 06:20:00,45.9,33.6,29.88,West,271,0.0,1.0,62,0.00,,,0.00,Wunderground v.1.15,2013-05-13 10:20:00,
2013-05-13 06:25:00,46.0,33.7,29.88,WSW,246,3.0,5.0,62,0.00,,,0.00,Wunderground v.1.15,2013-05-13 10:25:00,
2013-05-13 06:30:00,46.2,33.5,29.88,West,261,0.0,2.0,61,0.00,,,0.00,Wunderground v.1.15,2013-05-13 10:30:00,
2013-05-13 06:35:00,46.4,33.7,29.88,WNW,288,4.0,6.0,61,0.00,,,0.00,Wunderground v.1.15,2013-05-13 10:35:00,
2013-05-13 06:40:00,46.6,33.4,29.88,WSW,252,3.0,4.0,60,0.00,,,0.00,Wunderground v.1.15,2013-05-13 10:40:00,
2013-05-13 06:45:00,46.8,33.6,29.89,SSW,202,3.0,4.0,60,0.00,,,0.00,Wunderground v.1.15,2013-05-13 10:45:00,
2013-05-13 06:50:00,47.1,33.9,29.89,SW,236,5.0,6.0,60,0.00,,,0.00,Wunderground v.1.15,2013-05-13 10:50:00,
2013-05-13 06:55:00,47.4,33.8,29.89,SSW,197,3.0,6.0,59,0.00,,,0.00,Wunderground v.1.15,2013-05-13 10:55:00,
2013-05-13 07:00:00,47.6,33.5,29.90,SW,223,0.0,2.0,58,0.00,,,0.00,Wunderground v.1.15,2013-05-13 11:00:00,
2013-05-13 07:05:00,47.9,33.8,29.90,SSW,194,0.0,6.0,58,0.00,,,0.00,Wunderground v.1.15,2013-05-13 11:05:00,
2013-05-13 07:10:00,48.1,33.6,29.90,SSW,200,2.0,5.0,57,0.00,,,0.00,Wunderground v.1.15,2013-05-13 11:10:00,
2013-05-13 07:15:00,48.4,33.4,29.90,SSW,210,3.0,7.0,56,0.00,,,0.00,Wunderground v.1.15,2013-05-13 11:15:00,
2013-05-13 07:20:00,48.7,34.6,29.90,WSW,253,4.0,5.0,58,0.00,,,0.00,Wunderground v.1.15,2013-05-13 11:20:00,
2013-05-13 07:25:00,49.0,35.3,29.90,SW,232,2.0,8.0,59,0.00,,,0.00,Wunderground v.1.15,2013-05-13 11:25:00,
2013-05-13 07:30:00,49.2,35.5,29.90,WSW,245,4.0,8.0,59,0.00,,,0.00,Wunderground v.1.15,2013-05-13 11:30:00,
2013-05-13 07:35:00,49.4,35.2,29.90,WSW,248,1.0,8.0,58,0.00,,,0.00,Wunderground v.1.15,2013-05-13 11:35:00,
2013-05-13 07:40:00,49.6,35.8,29.90,West,261,1.0,5.0,59,0.00,,,0.00,Wunderground v.1.15,2013-05-13 11:40:00,
2013-05-13 07:45:00,49.8,35.2,29.90,SW,214,3.0,9.0,57,0.00,,,0.00,Wunderground v.1.15,2013-05-13 11:45:00,
2013-05-13 07:50:00,50.0,35.4,29.90,WNW,283,10.0,12.0,57,0.00,,,0.00,Wunderground v.1.15,2013-05-13 11:50:00,
2013-05-13 07:55:00,50.2,36.0,29.90,SSW,211,4.0,12.0,58,0.00,,,0.00,Wunderground v.1.15,2013-05-13 11:55:00,
2013-05-13 08:00:00,50.4,34.8,29.90,NW,315,0.0,4.0,55,0.00,,,0.00,Wunderground v.1.15,2013-05-13 12:00:00,
2013-05-13 08:06:00,50.7,35.6,29.90,West,261,6.0,10.0,56,0.00,,,0.00,Wunderground v.1.15,2013-05-13 12:06:00,
2013-05-13 08:11:00,51.0,34.9,29.90,SW,215,0.0,4.0,54,0.00,,,0.00,Wunderground v.1.15,2013-05-13 12:11:00,
2013-05-13 08:16:00,51.2,34.2,29.90,WNW,294,5.0,10.0,52,0.00,,,0.00,Wunderground v.1.15,2013-05-13 12:16:00,
2013-05-13 08:21:00,51.4,34.3,29.90,SE,146,3.0,9.0,52,0.00,,,0.00,Wunderground v.1.15,2013-05-13 12:21:00,
2013-05-13 08:25:00,51.5,34.0,29.90,West,280,6.0,12.0,51,0.00,,,0.00,Wunderground v.1.15,2013-05-13 12:25:00,
2013-05-13 08:30:00,51.6,34.5,29.90,WSW,242,9.0,9.0,52,0.00,,,0.00,Wunderground v.1.15,2013-05-13 12:30:00,
2013-05-13 08:35:00,51.9,34.8,29.91,WSW,253,6.0,16.0,52,0.00,,,0.00,Wunderground v.1.15,2013-05-13 12:35:00,
2013-05-13 08:41:00,52.1,35.0,29.90,West,273,4.0,16.0,52,0.00,,,0.00,Wunderground v.1.15,2013-05-13 12:41:00,
2013-05-13 08:46:00,52.4,35.3,29.91,West,259,2.0,16.0,52,0.00,,,0.00,Wunderground v.1.15,2013-05-13 12:46:00,
2013-05-13 08:51:00,52.7,34.6,29.90,NNW,328,3.0,11.0,50,0.00,,,0.00,Wunderground v.1.15,2013-05-13 12:51:00,
2013-05-13 08:56:00,53.1,35.4,29.91,West,267,3.0,14.0,51,0.00,,,0.00,Wunderground v.1.15,2013-05-13 12:56:00,
2013-05-13 09:01:00,53.4,36.2,29.91,WSW,248,6.0,10.0,52,0.00,,,0.00,Wunderground v.1.15,2013-05-13 13:01:00,
2013-05-13 09:06:00,53.5,35.3,29.91,WSW,257,2.0,12.0,50,0.00,,,0.00,Wunderground v.1.15,2013-05-13 13:06:00,
2013-05-13 09:11:00,53.5,35.8,29.91,West,281,9.0,12.0,51,0.00,,,0.00,Wunderground v.1.15,2013-05-13 13:11:00,
2013-05-13 09:16:00,53.3,35.1,29.91,SW,225,6.0,12.0,50,0.00,,,0.00,Wunderground v.1.15,2013-05-13 13:16:00,
2013-05-13 09:21:00,53.2,34.5,29.91,WNW,286,12.0,14.0,49,0.00,,,0.00,Wunderground v.1.15,2013-05-13 13:21:00,
2013-05-13 09:26:00,53.2,34.0,29.91,NNW,337,5.0,15.0,48,0.00,,,0.00,Wunderground v.1.15,2013-05-13 13:26:00,
2013-05-13 09:31:00,53.3,34.6,29.91,WNW,294,9.0,14.0,49,0.00,,,0.00,Wunderground v.1.15,2013-05-13 13:31:00,
2013-05-13 09:36:00,53.5,35.3,29.92,SW,221,12.0,21.0,50,0.00,,,0.00,Wunderground v.1.15,2013-05-13 13:36:00,
2013-05-13 09:41:00,53.6,34.9,29.91,West,264,10.0,16.0,49,0.00,,,0.00,Wunderground v.1.15,2013-05-13 13:41:00,
2013-05-13 09:46:00,53.9,33.6,29.91,West,269,9.0,16.0,46,0.00,,,0.00,Wunderground v.1.15,2013-05-13 13:46:00,
2013-05-13 09:51:00,54.0,34.2,29.91,SSW,200,2.0,10.0,47,0.00,,,0.00,Wunderground v.1.15,2013-05-13 13:51:00,
2013-05-13 09:56:00,54.2,34.4,29.91,SW,223,4.0,11.0,47,0.00,,,0.00,Wunderground v.1.15,2013-05-13 13:56:00,
2013-05-13 10:01:00,54.5,34.1,29.92,West,277,4.0,7.0,46,0.00,,,0.00,Wunderground v.1.15,2013-05-13 14:01:00,
2013-05-13 10:06:00,54.6,34.8,29.92,WSW,253,1.0,18.0,47,0.00,,,0.00,Wunderground v.1.15,2013-05-13 14:06:00,
2013-05-13 10:11:00,54.8,33.8,29.92,WSW,249,3.0,11.0,45,0.00,,,0.00,Wunderground v.1.15,2013-05-13 14:11:00,
2013-05-13 10:16:00,54.9,33.9,29.92,NW,313,6.0,12.0,45,0.00,,,0.00,Wunderground v.1.15,2013-05-13 14:16:00,
2013-05-13 10:21:00,55.1,34.7,29.92,NW,315,3.0,16.0,46,0.00,,,0.00,Wunderground v.1.15,2013-05-13 14:21:00,
2013-05-13 10:26:00,55.5,35.0,29.92,West,264,7.0,22.0,46,0.00,,,0.00,Wunderground v.1.15,2013-05-13 14:26:00,
2013-05-13 10:31:00,55.7,36.3,29.92,WSW,256,5.0,8.0,48,0.00,,,0.00,Wunderground v.1.15,2013-05-13 14:31:00,
2013-05-13 10:36:00,55.9,34.3,29.92,West,277,3.0,12.0,44,0.00,,,0.00,Wunderground v.1.15,2013-05-13 14:36:00,
2013-05-13 10:42:00,55.9,35.9,29.92,West,260,3.0,13.0,47,0.00,,,0.00,Wunderground v.1.15,2013-05-13 14:42:00,
2013-05-13 10:47:00,55.9,34.8,29.92,WSW,254,12.0,17.0,45,0.00,,,0.00,Wunderground v.1.15,2013-05-13 14:47:00,
2013-05-13 10:52:00,55.8,35.9,29.92,WNW,300,6.0,15.0,47,0.00,,,0.00,Wunderground v.1.15,2013-05-13 14:52:00,
2013-05-13 10:57:00,55.9,36.5,29.92,West,267,13.0,18.0,48,0.00,,,0.00,Wunderground v.1.15,2013-05-13 14:57:00,
2013-05-13 11:02:00,56.1,35.0,29.92,SSW,205,1.0,10.0,45,0.00,,,0.00,Wunderground v.1.15,2013-05-13 15:02:00,
2013-05-13 11:07:00,56.3,35.2,29.92,WSW,257,5.0,13.0,45,0.00,,,0.00,Wunderground v.1.15,2013-05-13 15:07:00,
2013-05-13 11:12:00,56.4,35.3,29.92,WNW,282,9.0,16.0,45,0.00,,,0.00,Wunderground v.1.15,2013-05-13 15:12:00,
2013-05-13 11:17:00,56.5,35.4,29.92,North,350,2.0,16.0,45,0.00,,,0.00,Wunderground v.1.15,2013-05-13 15:17:00,
2013-05-13 11:22:00,56.6,34.9,29.92,SW,233,5.0,10.0,44,0.00,,,0.00,Wunderground v.1.15,2013-05-13 15:22:00,
2013-05-13 11:27:00,56.9,35.2,29.92,WNW,298,6.0,14.0,44,0.00,,,0.00,Wunderground v.1.15,2013-05-13 15:27:00,
2013-05-13 11:32:00,56.8,33.9,29.93,WNW,301,8.0,12.0,42,0.00,,,0.00,Wunderground v.1.15,2013-05-13 15:32:00,
2013-05-13 11:37:00,56.5,37.0,29.92,West,265,5.0,14.0,48,0.00,,,0.00,Wunderground v.1.15,2013-05-13 15:37:00,
2013-05-13 11:42:00,56.5,35.4,29.92,West,269,4.0,12.0,45,0.00,,,0.00,Wunderground v.1.15,2013-05-13 15:42:00,
2013-05-13 11:47:00,56.6,35.5,29.92,WSW,246,3.0,12.0,45,0.00,,,0.00,Wunderground v.1.15,2013-05-13 15:47:00,
2013-05-13 11:52:00,56.5,35.4,29.92,WNW,303,6.0,14.0,45,0.00,,,0.00,Wunderground v.1.15,2013-05-13 15:52:00,
2013-05-13 11:57:00,56.2,33.4,29.92,WSW,247,4.0,14.0,42,0.00,,,0.00,Wunderground v.1.15,2013-05-13 15:57:00,
2013-05-13 12:02:00,55.9,33.7,29.92,West,262,11.0,15.0,43,0.00,,,0.00,Wunderground v.1.15,2013-05-13 16:02:00,
2013-05-13 12:07:00,55.9,34.8,29.92,NW,311,3.0,15.0,45,0.00,,,0.00,Wunderground v.1.15,2013-05-13 16:07:00,
2013-05-13 12:12:00,56.2,36.8,29.92,West,268,10.0,10.0,48,0.00,,,0.00,Wunderground v.1.15,2013-05-13 16:12:00,
2013-05-13 12:17:00,56.6,35.5,29.92,West,263,9.0,12.0,45,0.00,,,0.00,Wunderground v.1.15,2013-05-13 16:17:00,
2013-05-13 12:23:00,56.8,33.3,29.92,SW,222,7.0,13.0,41,0.00,,,0.00,Wunderground v.1.15,2013-05-13 16:23:00,
2013-05-13 12:28:00,57.0,35.9,29.92,NNW,338,4.0,13.0,45,0.00,,,0.00,Wunderground v.1.15,2013-05-13 16:28:00,
2013-05-13 12:32:00,57.1,35.4,29.92,WSW,240,0.0,8.0,44,0.00,,,0.00,Wunderground v.1.15,2013-05-13 16:32:00,
2013-05-13 12:37:00,57.4,36.2,29.92,West,270,4.0,11.0,45,0.00,,,0.00,Wunderground v.1.15,2013-05-13 16:37:00,
2013-05-13 12:43:00,57.6,38.0,29.92,WSW,257,7.0,11.0,48,0.00,,,0.00,Wunderground v.1.15,2013-05-13 16:43:00,
2013-05-13 12:48:00,57.7,32.9,29.92,SW,223,1.0,16.0,39,0.00,,,0.00,Wunderground v.1.15,2013-05-13 16:48:00,
2013-05-13 12:53:00,57.7,35.9,29.92,WNW,293,3.0,12.0,44,0.00,,,0.00,Wunderground v.1.15,2013-05-13 16:53:00,
2013-05-13 12:57:00,57.4,33.9,29.92,West,281,5.0,13.0,41,0.00,,,0.00,Wunderground v.1.15,2013-05-13 16:57:00,
2013-05-13 13:03:00,57.2,34.3,29.92,WSW,254,7.0,10.0,42,0.00,,,0.00,Wunderground v.1.15,2013-05-13 17:03:00,
2013-05-13 13:08:00,57.2,33.1,29.92,WNW,295,9.0,13.0,40,0.00,,,0.00,Wunderground v.1.15,2013-05-13 17:08:00,
2013-05-13 13:13:00,57.4,35.6,29.92,WSW,246,2.0,12.0,44,0.00,,,0.00,Wunderground v.1.15,2013-05-13 17:13:00,
2013-05-13 13:18:00,57.5,34.0,29.92,West,281,5.0,12.0,41,0.00,,,0.00,Wunderground v.1.15,2013-05-13 17:18:00,
2013-05-13 13:23:00,57.7,33.5,29.92,NW,317,5.0,11.0,40,0.00,,,0.00,Wunderground v.1.15,2013-05-13 17:23:00,
2013-05-13 13:28:00,57.8,35.4,29.92,West,281,8.0,17.0,43,0.00,,,0.00,Wunderground v.1.15,2013-05-13 17:28:00,
2013-05-13 13:33:00,57.8,33.0,29.92,SW,226,3.0,12.0,39,0.00,,,0.00,Wunderground v.1.15,2013-05-13 17:33:00,
2013-05-13 13:38:00,57.7,32.9,29.92,SW,224,1.0,15.0,39,0.00,,,0.00,Wunderground v.1.15,2013-05-13 17:38:00,
2013-05-13 13:43:00,57.8,34.2,29.92,WSW,250,5.0,14.0,41,0.00,,,0.00,Wunderground v.1.15,2013-05-13 17:43:00,
2013-05-13 13:48:00,57.9,35.5,29.92,WNW,295,7.0,14.0,43,0.00,,,0.00,Wunderground v.1.15,2013-05-13 17:48:00,
2013-05-13 13:53:00,58.0,33.2,29.92,SW,230,4.0,12.0,39,0.00,,,0.00,Wunderground v.1.15,2013-05-13 17:53:00,
2013-05-13 13:58:00,58.2,33.3,29.92,SW,233,7.0,14.0,39,0.00,,,0.00,Wunderground v.1.15,2013-05-13 17:58:00,
2013-05-13 14:03:00,58.3,34.7,29.92,West,281,7.0,14.0,41,0.00,,,0.00,Wunderground v.1.15,2013-05-13 18:03:00,
2013-05-13 14:08:00,58.2,34.0,29.91,WSW,247,7.0,14.0,40,0.00,,,0.00,Wunderground v.1.15,2013-05-13 18:08:00,
2013-05-13 14:13:00,58.2,35.8,29.91,SW,229,10.0,13.0,43,0.00,,,0.00,Wunderground v.1.15,2013-05-13 18:13:00,
2013-05-13 14:18:00,58.2,35.2,29.92,WNW,286,8.0,16.0,42,0.00,,,0.00,Wunderground v.1.15,2013-05-13 18:18:00,
2013-05-13 14:23:00,58.1,33.2,29.92,WSW,248,9.0,13.0,39,0.00,,,0.00,Wunderground v.1.15,2013-05-13 18:23:00,
2013-05-13 14:28:00,58.0,32.5,29.91,WSW,252,2.0,13.0,38,0.00,,,0.00,Wunderground v.1.15,2013-05-13 18:28:00,
2013-05-13 14:33:00,57.9,32.4,29.91,WSW,242,2.0,18.0,38,0.00,,,0.00,Wunderground v.1.15,2013-05-13 18:33:00,
2013-05-13 14:38:00,58.0,32.5,29.91,WNW,287,4.0,18.0,38,0.00,,,0.00,Wunderground v.1.15,2013-05-13 18:38:00,
2013-05-13 14:43:00,58.1,32.6,29.91,NW,315,9.0,12.0,38,0.00,,,0.00,Wunderground v.1.15,2013-05-13 18:43:00,
2013-05-13 14:48:00,58.1,34.5,29.91,WSW,257,6.0,20.0,41,0.00,,,0.00,Wunderground v.1.15,2013-05-13 18:48:00,
2013-05-13 14:53:00,58.2,32.7,29.91,West,276,5.0,9.0,38,0.00,,,0.00,Wunderground v.1.15,2013-05-13 18:53:00,
2013-05-13 14:58:00,58.1,32.6,29.90,WNW,297,4.0,13.0,38,0.00,,,0.00,Wunderground v.1.15,2013-05-13 18:58:00,
2013-05-13 15:03:00,57.9,34.9,29.90,WNW,296,11.0,17.0,42,0.00,,,0.00,Wunderground v.1.15,2013-05-13 19:03:00,
2013-05-13 15:08:00,57.7,32.2,29.90,West,271,3.0,17.0,38,0.00,,,0.00,Wunderground v.1.15,2013-05-13 19:08:00,
2013-05-13 15:14:00,57.7,32.9,29.90,WSW,249,6.0,9.0,39,0.00,,,0.00,Wunderground v.1.15,2013-05-13 19:14:00,
2013-05-13 15:19:00,57.6,34.1,29.90,NW,317,6.0,9.0,41,0.00,,,0.00,Wunderground v.1.15,2013-05-13 19:19:00,
2013-05-13 15:24:00,57.5,34.0,29.90,WSW,252,10.0,17.0,41,0.00,,,0.00,Wunderground v.1.15,2013-05-13 19:24:00,
2013-05-13 15:29:00,57.5,34.6,29.90,WNW,296,9.0,18.0,42,0.00,,,0.00,Wunderground v.1.15,2013-05-13 19:29:00,
2013-05-13 15:34:00,57.6,33.4,29.90,West,269,1.0,16.0,40,0.00,,,0.00,Wunderground v.1.15,2013-05-13 19:34:00,
2013-05-13 15:39:00,57.6,33.4,29.89,NNE,30,4.0,16.0,40,0.00,,,0.00,Wunderground v.1.15,2013-05-13 19:39:00,
2013-05-13 15:44:00,57.7,34.7,29.89,NW,306,4.0,15.0,42,0.00,,,0.00,Wunderground v.1.15,2013-05-13 19:44:00,
2013-05-13 15:49:00,57.7,35.3,29.90,West,279,4.0,15.0,43,0.00,,,0.00,Wunderground v.1.15,2013-05-13 19:49:00,
2013-05-13 15:54:00,57.6,34.7,29.89,West,269,11.0,12.0,42,0.00,,,0.00,Wunderground v.1.15,2013-05-13 19:54:00,
2013-05-13 15:59:00,57.7,31.6,29.89,NW,317,8.0,14.0,37,0.00,,,0.00,Wunderground v.1.15,2013-05-13 19:59:00,
2013-05-13 16:04:00,57.7,33.5,29.90,NW,322,8.0,9.0,40,0.00,,,0.00,Wunderground v.1.15,2013-05-13 20:04:00,
2013-05-13 16:09:00,57.6,34.7,29.90,West,263,4.0,12.0,42,0.00,,,0.00,Wunderground v.1.15,2013-05-13 20:09:00,
2013-05-13 16:14:00,57.5,34.0,29.89,West,261,2.0,8.0,41,0.00,,,0.00,Wunderground v.1.15,2013-05-13 20:14:00,
2013-05-13 16:19:00,57.5,34.0,29.89,SW,236,8.0,9.0,41,0.00,,,0.00,Wunderground v.1.15,2013-05-13 20:19:00,
2013-05-13 16:24:00,57.5,34.0,29.89,West,276,4.0,10.0,41,0.00,,,0.00,Wunderground v.1.15,2013-05-13 20:24:00,
2013-05-13 16:29:00,57.5,34.0,29.89,WSW,249,3.0,13.0,41,0.00,,,0.00,Wunderground v.1.15,2013-05-13 20:29:00,
2013-05-13 16:34:00,57.5,32.7,29.89,NW,325,13.0,17.0,39,0.00,,,0.00,Wunderground v.1.15,2013-05-13 20:34:00,
2013-05-13 16:39:00,57.3,33.2,29.89,West,259,10.0,17.0,40,0.00,,,0.00,Wunderground v.1.15,2013-05-13 20:39:00,
2013-05-13 16:44:00,57.1,32.4,29.89,WNW,294,0.0,11.0,39,0.00,,,0.00,Wunderground v.1.15,2013-05-13 20:44:00,
2013-05-13 16:49:00,57.1,33.6,29.89,WNW,299,9.0,12.0,41,0.00,,,0.00,Wunderground v.1.15,2013-05-13 20:49:00,
2013-05-13 16:54:00,57.1,32.4,29.89,WNW,286,8.0,12.0,39,0.00,,,0.00,Wunderground v.1.15,2013-05-13 20:54:00,
2013-05-13 16:59:00,57.2,33.1,29.89,NW,326,6.0,16.0,40,0.00,,,0.00,Wunderground v.1.15,2013-05-13 20:59:00,
2013-05-13 17:04:00,57.2,33.1,29.89,NNW,332,9.0,15.0,40,0.00,,,0.00,Wunderground v.1.15,2013-05-13 21:04:00,
2013-05-13 17:09:00,57.2,34.9,29.89,WNW,282,3.0,15.0,43,0.00,,,0.00,Wunderground v.1.15,2013-05-13 21:09:00,
2013-05-13 17:14:00,57.1,33.0,29.89,NW,314,2.0,11.0,40,0.00,,,0.00,Wunderground v.1.15,2013-05-13 21:14:00,
2013-05-13 17:19:00,57.1,34.2,29.89,NW,315,6.0,15.0,42,0.00,,,0.00,Wunderground v.1.15,2013-05-13 21:19:00,
2013-05-13 17:24:00,56.8,30.1,29.89,NW,310,12.0,16.0,36,0.00,,,0.00,Wunderground v.1.15,2013-05-13 21:24:00,
2013-05-13 17:29:00,56.7,32.0,29.89,West,275,8.0,16.0,39,0.00,,,0.00,Wunderground v.1.15,2013-05-13 21:29:00,
2013-05-13 17:34:00,56.6,31.9,29.89,NW,313,10.0,10.0,39,0.00,,,0.00,Wunderground v.1.15,2013-05-13 21:34:00,
2013-05-13 17:39:00,56.6,31.9,29.89,NNW,344,5.0,12.0,39,0.00,,,0.00,Wunderground v.1.15,2013-05-13 21:39:00,
2013-05-13 17:44:00,56.6,32.5,29.90,NW,305,9.0,18.0,40,0.00,,,0.00,Wunderground v.1.15,2013-05-13 21:44:00,
2013-05-13 17:49:00,56.4,33.0,29.90,WNW,290,7.0,18.0,41,0.00,,,0.00,Wunderground v.1.15,2013-05-13 21:49:00,
2013-05-13 17:54:00,56.2,34.0,29.90,NW,320,10.0,15.0,43,0.00,,,0.00,Wunderground v.1.15,2013-05-13 21:54:00,
2013-05-13 17:59:00,56.0,32.6,29.90,West,279,9.0,15.0,41,0.00,,,0.00,Wunderground v.1.15,2013-05-13 21:59:00,
2013-05-13 18:04:00,55.7,31.7,29.90,NW,307,5.0,14.0,40,0.00,,,0.00,Wunderground v.1.15,2013-05-13 22:04:00,
2013-05-13 18:09:00,55.6,34.0,29.90,NNW,340,7.0,14.0,44,0.00,,,0.00,Wunderground v.1.15,2013-05-13 22:09:00,
2013-05-13 18:14:00,55.4,32.7,29.90,West,281,5.0,13.0,42,0.00,,,0.00,Wunderground v.1.15,2013-05-13 22:14:00,
2013-05-13 18:19:00,55.3,32.6,29.90,NW,314,10.0,15.0,42,0.00,,,0.00,Wunderground v.1.15,2013-05-13 22:19:00,
2013-05-13 18:24:00,55.2,32.5,29.90,WNW,286,4.0,10.0,42,0.00,,,0.00,Wunderground v.1.15,2013-05-13 22:24:00,
2013-05-13 18:29:00,55.2,32.5,29.90,NW,325,9.0,15.0,42,0.00,,,0.00,Wunderground v.1.15,2013-05-13 22:29:00,
2013-05-13 18:34:00,55.1,31.2,29.90,NNW,327,4.0,15.0,40,0.00,,,0.00,Wunderground v.1.15,2013-05-13 22:34:00,
2013-05-13 18:39:00,54.9,32.2,29.90,NW,323,14.0,15.0,42,0.00,,,0.00,Wunderground v.1.15,2013-05-13 22:39:00,
2013-05-13 18:45:00,54.7,31.4,29.91,NW,323,10.0,16.0,41,0.00,,,0.00,Wunderground v.1.15,2013-05-13 22:45:00,
2013-05-13 18:50:00,54.5,30.6,29.91,WNW,288,12.0,13.0,40,0.00,,,0.00,Wunderground v.1.15,2013-05-13 22:50:00,
2013-05-13 18:55:00,54.2,31.6,29.91,NW,313,4.0,15.0,42,0.00,,,0.00,Wunderground v.1.15,2013-05-13 22:55:00,
2013-05-13 19:00:00,54.0,31.4,29.92,NNW,338,11.0,11.0,42,0.00,,,0.00,Wunderground v.1.15,2013-05-13 23:00:00,
2013-05-13 19:05:00,53.8,30.0,29.92,NNW,334,7.0,17.0,40,0.00,,,0.00,Wunderground v.1.15,2013-05-13 23:05:00,
2013-05-13 19:10:00,53.6,30.4,29.92,North,360,8.0,9.0,41,0.00,,,0.00,Wunderground v.1.15,2013-05-13 23:10:00,
2013-05-13 19:15:00,53.3,31.4,29.92,NW,317,6.0,17.0,43,0.00,,,0.00,Wunderground v.1.15,2013-05-13 23:15:00,
2013-05-13 19:20:00,53.1,31.2,29.92,NNW,331,3.0,7.0,43,0.00,,,0.00,Wunderground v.1.15,2013-05-13 23:20:00,
2013-05-13 19:25:00,52.8,30.3,29.93,NNW,348,8.0,15.0,42,0.00,,,0.00,Wunderground v.1.15,2013-05-13 23:25:00,
2013-05-13 19:30:00,52.6,30.7,29.93,NNW,336,5.0,8.0,43,0.00,,,0.00,Wunderground v.1.15,2013-05-13 23:30:00,
2013-05-13 19:35:00,52.4,31.1,29.93,NW,313,9.0,12.0,44,0.00,,,0.00,Wunderground v.1.15,2013-05-13 23:35:00,
2013-05-13 19:40:00,52.2,30.9,29.94,NW,317,11.0,11.0,44,0.00,,,0.00,Wunderground v.1.15,2013-05-13 23:40:00,
2013-05-13 19:45:00,51.9,30.6,29.94,West,279,10.0,17.0,44,0.00,,,0.00,Wunderground v.1.15,2013-05-13 23:45:00,
2013-05-13 19:50:00,51.7,31.0,29.94,NW,321,15.0,15.0,45,0.00,,,0.00,Wunderground v.1.15,2013-05-13 23:50:00,
2013-05-13 19:55:00,51.5,30.8,29.95,NW,311,10.0,15.0,45,0.00,,,0.00,Wunderground v.1.15,2013-05-13 23:55:00,
2013-05-13 20:00:00,51.3,30.7,29.95,NNW,327,6.0,8.0,45,0.00,,,0.00,Wunderground v.1.15,2013-05-14 00:00:00,
2013-05-13 20:05:00,51.1,30.5,29.95,NNW,332,13.0,14.0,45,0.00,,,0.00,Wunderground v.1.15,2013-05-14 00:05:00,
2013-05-13 20:10:00,50.9,30.3,29.95,NNW,333,7.0,8.0,45,0.00,,,0.00,Wunderground v.1.15,2013-05-14 00:10:00,
2013-05-13 20:15:00,50.7,29.6,29.95,NW,315,7.0,10.0,44,0.00,,,0.00,Wunderground v.1.15,2013-05-14 00:15:00,
2013-05-13 20:20:00,50.6,30.0,29.96,NW,309,4.0,6.0,45,0.00,,,0.00,Wunderground v.1.15,2013-05-14 00:20:00,
2013-05-13 20:25:00,50.5,29.9,29.96,NW,313,4.0,10.0,45,0.00,,,0.00,Wunderground v.1.15,2013-05-14 00:25:00,
2013-05-13 20:30:00,50.4,30.9,29.96,NNW,329,4.0,6.0,47,0.00,,,0.00,Wunderground v.1.15,2013-05-14 00:30:00,
2013-05-13 20:35:00,50.3,30.8,29.96,NW,311,4.0,8.0,47,0.00,,,0.00,Wunderground v.1.15,2013-05-14 00:35:00,
2013-05-13 20:40:00,50.1,30.1,29.96,NW,322,5.0,6.0,46,0.00,,,0.00,Wunderground v.1.15,2013-05-14 00:40:00,
2013-05-13 20:45:00,49.9,29.4,29.96,NNW,327,6.0,8.0,45,0.00,,,0.00,Wunderground v.1.15,2013-05-14 00:45:00,
2013-05-13 20:50:00,49.7,29.2,29.96,NW,319,4.0,7.0,45,0.00,,,0.00,Wunderground v.1.15,2013-05-14 00:50:00,
2013-05-13 20:55:00,49.6,30.2,29.97,WNW,284,3.0,7.0,47,0.00,,,0.00,Wunderground v.1.15,2013-05-14 00:55:00,
2013-05-13 21:00:00,49.5,29.0,29.97,NW,325,2.0,4.0,45,0.00,,,0.00,Wunderground v.1.15,2013-05-14 01:00:00,
2013-05-13 21:05:00,49.4,30.0,29.97,NW,313,4.0,8.0,47,0.00,,,0.00,Wunderground v.1.15,2013-05-14 01:05:00,
2013-05-13 21:10:00,49.2,30.3,29.98,NW,314,2.0,5.0,48,0.00,,,0.00,Wunderground v.1.15,2013-05-14 01:10:00,
2013-05-13 21:15:00,49.2,30.8,29.98,NW,324,5.0,7.0,49,0.00,,,0.00,Wunderground v.1.15,2013-05-14 01:15:00,
2013-05-13 21:20:00,49.2,30.3,29.98,NW,306,3.0,4.0,48,0.00,,,0.00,Wunderground v.1.15,2013-05-14 01:20:00,
2013-05-13 21:25:00,49.1,30.7,29.98,NW,317,3.0,5.0,49,0.00,,,0.00,Wunderground v.1.15,2013-05-14 01:25:00,
2013-05-13 21:30:00,49.0,30.7,29.99,NW,321,2.0,3.0,49,0.00,,,0.00,Wunderground v.1.15,2013-05-14 01:30:00,
2013-05-13 21:35:00,48.9,30.6,29.99,WNW,291,4.0,6.0,49,0.00,,,0.00,Wunderground v.1.15,2013-05-14 01:35:00,
2013-05-13 21:40:00,48.8,31.0,29.99,NW,306,3.0,3.0,50,0.00,,,0.00,Wunderground v.1.15,2013-05-14 01:40:00,
2013-05-13 21:45:00,48.7,30.9,29.99,WNW,285,1.0,6.0,50,0.00,,,0.00,Wunderground v.1.15,2013-05-14 01:45:00,
2013-05-13 21:50:00,48.7,30.9,29.99,WNW,291,3.0,5.0,50,0.00,,,0.00,Wunderground v.1.15,2013-05-14 01:50:00,
2013-05-13 21:55:00,48.7,31.4,29.99,NW,321,5.0,7.0,51,0.00,,,0.00,Wunderground v.1.15,2013-05-14 01:55:00,
2013-05-13 22:00:00,48.6,31.3,29.99,NW,324,4.0,4.0,51,0.00,,,0.00,Wunderground v.1.15,2013-05-14 02:00:00,
2013-05-13 22:06:00,48.5,31.2,29.99,WNW,296,1.0,6.0,51,0.00,,,0.00,Wunderground v.1.15,2013-05-14 02:06:00,
2013-05-13 22:11:00,48.6,31.3,29.99,NW,323,1.0,3.0,51,0.00,,,0.00,Wunderground v.1.15,2013-05-14 02:11:00,
2013-05-13 22:16:00,48.6,31.8,29.99,NW,323,0.0,3.0,52,0.00,,,0.00,Wunderground v.1.15,2013-05-14 02:16:00,
2013-05-13 22:21:00,48.6,31.3,29.99,NW,321,4.0,5.0,51,0.00,,,0.00,Wunderground v.1.15,2013-05-14 02:21:00,
2013-05-13 22:26:00,48.5,31.7,29.98,NW,317,7.0,7.0,52,0.00,,,0.00,Wunderground v.1.15,2013-05-14 02:26:00,
2013-05-13 22:31:00,48.5,32.1,29.98,NNW,344,2.0,6.0,53,0.00,,,0.00,Wunderground v.1.15,2013-05-14 02:31:00,
2013-05-13 22:36:00,48.4,32.5,29.99,West,273,3.0,6.0,54,0.00,,,0.00,Wunderground v.1.15,2013-05-14 02:36:00,
2013-05-13 22:41:00,48.2,31.4,29.99,NW,314,2.0,3.0,52,0.00,,,0.00,Wunderground v.1.15,2013-05-14 02:41:00,
2013-05-13 22:46:00,48.2,31.9,29.99,NW,310,2.0,5.0,53,0.00,,,0.00,Wunderground v.1.15,2013-05-14 02:46:00,
2013-05-13 22:51:00,48.1,31.3,29.99,NW,313,2.0,6.0,52,0.00,,,0.00,Wunderground v.1.15,2013-05-14 02:51:00,
2013-05-13 22:56:00,48.0,32.1,29.99,NNW,331,4.0,6.0,54,0.00,,,0.00,Wunderground v.1.15,2013-05-14 02:56:00,
2013-05-13 23:01:00,48.0,31.7,29.99,NNW,331,3.0,5.0,53,0.00,,,0.00,Wunderground v.1.15,2013-05-14 03:01:00,
2013-05-13 23:06:00,47.9,31.6,29.99,NW,319,2.0,5.0,53,0.00,,,0.00,Wunderground v.1.15,2013-05-14 03:06:00,
2013-05-13 23:11:00,47.8,31.5,29.99,NW,322,3.0,4.0,53,0.00,,,0.00,Wunderground v.1.15,2013-05-14 03:11:00,
2013-05-13 23:16:00,47.9,32.5,29.99,NW,309,1.0,5.0,55,0.00,,,0.00,Wunderground v.1.15,2013-05-14 03:16:00,
2013-05-13 23:21:00,47.9,32.0,29.99,NNW,329,2.0,3.0,54,0.00,,,0.00,Wunderground v.1.15,2013-05-14 03:21:00,
2013-05-13 23:26:00,47.8,31.5,29.98,NW,313,4.0,7.0,53,0.00,,,0.00,Wunderground v.1.15,2013-05-14 03:26:00,
2013-05-13 23:31:00,47.8,31.9,29.99,WNW,298,2.0,3.0,54,0.00,,,0.00,Wunderground v.1.15,2013-05-14 03:31:00,
2013-05-13 23:36:00,47.8,32.4,29.99,WNW,292,1.0,6.0,55,0.00,,,0.00,Wunderground v.1.15,2013-05-14 03:36:00,
2013-05-13 23:41:00,47.8,32.9,29.99,North,355,1.0,2.0,56,0.00,,,0.00,Wunderground v.1.15,2013-05-14 03:41:00,
2013-05-13 23:46:00,47.7,32.3,29.98,NW,314,2.0,7.0,55,0.00,,,0.00,Wunderground v.1.15,2013-05-14 03:46:00,
2013-05-13 23:51:00,47.6,32.2,29.98,NW,308,3.0,6.0,55,0.00,,,0.00,Wunderground v.1.15,2013-05-14 03:51:00,
2013-05-13 23:56:00,47.5,32.6,29.98,NNW,329,5.0,7.0,56,0.00,,,0.00,Wunderground v.1.15,2013-05-14 03:56:00,